Regional Weather Roundup
Issued by NWS

Home | Current Version | Previous Version | Graphics & Text | Print | Product List | Glossary On
Versions: 1 2 3 4 5 6 7 8 9 10 11 12 13 14 15 16 17 18 19 20 21 22 23 24 25 26 27 28 29 30 31 32 33 34 35 36 37 38 39 40 41 42 43 44 45 46 47 48 49 50
000
ASUS45 KTFX 012104
RWRMT
MONTANA HOURLY WEATHER ROUNDUP
NATIONAL WEATHER SERVICE GREAT FALLS MT
304 PM MDT WED APR 1 2015

NOTE: "FAIR" INDICATES FEW OR NO CLOUDS BELOW 12000 FEET WITH NO
SIGNIFICANT WEATHER AND/OR OBSTRUCTIONS TO VISIBILITY.

* THESE STATIONS ARE NOT UNDER NWS QUALITY CONTROL. THEY DO NOT
   REPORT WEATHER SUCH AS PRECIPITATION OR FOG.

MTZ001>007-043-012200-
WEST OF THE DIVIDE
CITY           SKY/WX    TMP DP  RH WIND       PRES   REMARKS
KALISPELL      PTSUNNY   48  18  30 W14G20    29.92F
MISSOULA       LGT SNOW  39  25  57 NW13G35   30.04S WCI  31
BUTTE          CLOUDY    34  14  44 NW12      29.95F WCI  25
MULLAN PASS    HVY SNOW  25  23  92 NW7       29.98S VSB M1/4 WCI  17
* ESSEX        N/A       39  21  48 SE6G12     N/A   WCI  35
* LINCOLN      N/A       43  14  31 W9G22      N/A
* LOOKOUT PASS N/A       30  25  82 NE12G17    N/A   WCI  20
* POLSON       N/A       45  18  34 SW3G11     N/A
* RONAN APT    PTCLDY    45  19  35 S15G24     N/A
* SEELEY LAKE  N/A       41  18  39 W9G20      N/A
* THOMP F APT  PTCLDY    32  10  40 W2G20      N/A
$$

MTZ008-052>055-012200-
SOUTHWEST MONTANA
CITY           SKY/WX    TMP DP  RH WIND       PRES   REMARKS
BOZEMAN        CLOUDY    41  16  36 W22G29    29.93R
DILLON         CLOUDY    45  10  24 W31G41    29.94F
* W YELLOWSTON CLOUDY    31  26  82 SW4G12     N/A
* THREE FORKS  CLOUDY    45  12  26 SW21G28    N/A
* TWIN BRIDGES CLOUDY    39  12  33 NW10       N/A   WCI  32
* BOULDER HILL N/A       41  14  33 SE4G19     N/A
* HOMESTAKE PS N/A       32  10  40 W7G14      N/A   WCI  25
* MONIDA PASS  N/A       35  -3  19 W17G23     N/A   WCI  25
* RAYNOLDS PAS N/A       32  14  47 S7G12      N/A   WCI  25
* WHITEHALL    N/A       40  21  47 SW9G16     N/A   WCI  34
* WISE RIVER   N/A       35  15  44 W12G23     N/A   WCI  27
$$

MTZ009>010-012-014-046-048-049-054-012200-
EAST SLOPES AND CENTRAL MONTANA
CITY           SKY/WX    TMP DP  RH WIND       PRES   REMARKS
CUT BANK       PTCLDY    46  18  33 W40G48    29.76F
GREAT FALLS    PTCLDY    50   7  17 W22G38    29.82F
HELENA         PTCLDY    48  10  21 W16G29    29.89F
MALMSTROM AFB  PTCLDY    48   7  19 W21G36    29.83F
* DEARBORN     N/A       47   8  20 S14G26     N/A
* EAST GLACIER N/A       34  17  50 NW11G18    N/A   WCI  26
* MONARCH      N/A       38   9  30 W19G31     N/A   WCI  28
* PENDROY      N/A       43  14  31 NW27G37    N/A
* ROGERS PASS  N/A       39   7  26 SE12G24    N/A   WCI  32
* SAINT MARY   N/A       38  18  44 W10G20     N/A   WCI  31
* SWEET GRASS  N/A       46   7  20 NW38G46    N/A
$$

MTZ011-013-016-021-035-040-045-047-050-051-012200-
NORTH CENTRAL MONTANA
CITY           SKY/WX    TMP DP  RH WIND       PRES   REMARKS
HAVRE          PTSUNNY   50  16  26 NW25G38   29.74F
LEWISTOWN      CLOUDY    48  12  23 NW23G40   29.80S
* N BAR RANCH  PTSUNNY   45   7  21 NW25G32   29.80F
* MALTA APT    PTCLDY    46  30  54 W32G37     N/A
* CHESTER      N/A       46  12  25 W19G39     N/A
* DENTON       N/A       50  16  26 W29G40     N/A
* GEYSER       N/A       43  12  28 W26G32     N/A
* JUDITH GAP   N/A       45  13  27 W22G33     N/A
* LOMA         N/A       51   9  18 W27G37     N/A
$$

MTZ017>020-022>027-061-062-012200-
NORTHEAST MONTANA
CITY           SKY/WX    TMP DP  RH WIND       PRES   REMARKS
GLENDIVE       PTSUNNY   54  23  30 W26G38    29.73S
JORDAN         PTSUNNY   52  27  38 NW23G36   29.76R
SIDNEY         PTSUNNY   55  21  27 W15G28    29.68S
WOLF POINT     PTSUNNY   54  25  33 W25G33    29.71R
* BEAVER HILL  N/A       52  20  28 W32G37     N/A
* CIRCLE       N/A       47  31  54 W21G32     N/A
* LINDSAY DVD  N/A       47  23  39 W29G38     N/A
* NAVAJO       N/A       47  20  34 NW26G32    N/A
* SACO         N/A       49  25  39 W19G32     N/A
$$

MTZ028>042-056>058-012200-
SOUTHCENTRAL AND SOUTHEAST MONTANA
CITY           SKY/WX    TMP DP  RH WIND       PRES   REMARKS
BAKER          PTCLDY    55  18  23 W24G40    29.74S
BILLINGS       PTSUNNY   54   7  15 W29G37    29.83F
LIVINGSTON     CLOUDY    43  14  31 W29G39    29.88F
MILES CITY     PTCLDY    64   9  11 W30G40    29.77S
* LAUREL APT   PTCLDY    54  10  17 W25G37     N/A
* ROUNDUP APT  PTCLDY    52   9  17 W15G22     N/A
* ALZADA       N/A       51  21  31 W13G18     N/A
* HYSHAM       N/A       48  13  24 W16G25     N/A
* LAME DEER    N/A       47  12  24 W19G26     N/A
* REED POINT   N/A       47  18  31 W30G39     N/A
* ROSCOE HILL  N/A       45   2  17 W6G15      N/A
$$

REGIONAL REPORTS...DAKOTAS
CITY           SKY/WX    TMP DP  RH WIND       PRES   REMARKS
WILLISTON      CLOUDY    54  23  30 W23G37    29.64S
DICKINSON      PTCLDY    55  25  31 W32G43    29.63S
CROSBY         PTCLDY    54  25  33 W25G40    29.61R
WATFORD CITY   SUNNY     54  27  35 W26G36    29.63R
BISMARCK       SUNNY     63  27  26 NW21G36   29.58R
GRAND FORKS    CLOUDY    64  39  40 NW22G28   29.38R
FARGO          PTCLDY    70  36  29 W30G41    29.38R
BUFFALO SD     PTCLDY    55  16  21 W38G46    29.67R
RAPID CITY     PTCLDY    54  28  37 NW40G52   29.73R
$$

REGIONAL REPORTS...WYOMING/IDAHO/WASHINGTON
CITY           SKY/WX    TMP DP  RH WIND       PRES   REMARKS
GILLETTE       PTSUNNY   48  18  30 NW24G30   29.83F
SHERIDAN       CLOUDY    52  12  20 NW25G35   29.83F
CODY           PTSUNNY   45  16  31 NW14G24   29.89R
YELLOWSTONE LA CLOUDY    28  12  51 W12G23    29.94S WCI  18
SALMON         CLOUDY    41  21  45 NE18G24   30.00S
MULLAN PASS    HVY SNOW  25  23  92 NW7       29.98S VSB M1/4 WCI  17
SAND POINT     PTSUNNY   45  32  60 S8        30.04F
SPOKANE        RAINSNOW  43  28  56 NW25G30   30.09R VSB 2
$$

REGIONAL REPORTS...SASKATCHEWAN
CITY           SKY/WX    TMP DP  RH WIND       PRES   REMARKS
SWIFT CURRENT  N/A       37  30  76 W23G47    29.59S WCI  26

$$




USA.gov is the U.S. government's official web portal to all federal, state and local government web resources and services.